This demonstration page uses our WeatherBlox Daily Observations layout. Learn more.

40.92945, -100.16068

Hourly Observations for June 21, 2018

Temp ( °F °C ) Dew Point ( °F °C ) Humidity (%) Winds ( mph kmh ) Pressure ( in mb ) Visibility ( mi km ) Precip ( " mm )
12:15 am 00:15 Clear 60 15.3 56 13.5 89 89 NW 6 9 30 1016 10 16.0934 0 0
12:35 am 00:35 Clear 60 15.3 57 13.7 90 90 WNW 7 11 30 1016 10 16.0934 0 0
12:50 am 00:50 Clear 59 15.1 56 13.6 91 91 WNW 7 11 30 1016 10 16.0934 0 0
1:15 am 01:15 Clear 59 15.2 56 13.4 89 89 WNW 9 15 30 1016 10 16.0934 0 0
1:35 am 01:35 Clear 59 15.1 56 13.1 88 88 WNW 9 15 29.97 1015 10 16.0934 0 0
1:55 am 01:55 Clear 59 15.1 55 13 87 87 WNW 9 15 29.97 1015 10 16.0934 0 0
2:15 am 02:15 Clear 59 15.1 55 12.7 86 86 WNW 9 15 29.97 1015 10 16.0934 0 0
2:35 am 02:35 Clear 59 15 55 12.5 85 85 WNW 10 17 29.97 1015 10 16.0934 0 0
2:55 am 02:55 Clear 58 14.5 54 12.1 86 86 WNW 12 19 29.97 1015 10 16.0934 0 0
3:15 am 03:15 Clear 58 14.5 54 12 85 85 WNW 13 20 29.97 1015 10 16.0934 0 0
3:35 am 03:35 Clear 58 14.5 53 11.8 84 84 WNW 13 20 29.97 1015 10 16.0934 0 0
3:55 am 03:55 Clear 58 14.3 53 11.8 85 85 WNW 14 22 29.97 1015 10 16.0934 0 0
4:15 am 04:15 Clear 57 14.1 53 11.9 87 87 WNW 12 19 29.97 1015 10 16.0934 0 0
4:35 am 04:35 Clear 57 14 54 12 88 88 WNW 13 20 29.97 1015 10 16.0934 0 0
4:55 am 04:55 Clear 57 14 54 12.4 90 90 WNW 13 20 29.97 1015 10 16.0934 0 0
5:15 am 05:15 Clear 57 14.1 55 12.6 91 91 WNW 10 17 29.97 1015 10 16.0934 0 0
5:35 am 05:35 Clear 57 14.1 55 12.6 91 91 WNW 10 17 29.97 1015 10 16.0934 0 0
5:55 am 05:55 Clear 58 14.2 55 12.8 91 91 NW 9 15 29.97 1015 10 16.0934 0 0
6:15 am 06:15 Sunny 57 14.1 55 12.8 92 92 WNW 12 19 29.97 1015 10 16.0934 0 0
6:35 am 06:35 Sunny 58 14.4 55 13 91 91 WNW 12 19 29.97 1015 10 16.0934 0 0
6:55 am 06:55 Sunny 58 14.5 55 13 91 91 WNW 10 17 29.97 1015 10 16.0934 0 0
7:15 am 07:15 Sunny 58 14.6 55 13 90 90 WNW 12 19 29.97 1015 10 16.0934 0 0
7:35 am 07:35 Sunny 60 15.7 56 13.5 87 87 WNW 12 19 29.97 1015 10 16.0934 0 0
7:55 am 07:55 Sunny 62 16.5 56 13.5 83 83 WNW 12 19 29.94 1014 10 16.0934 0 0
8:15 am 08:15 Sunny 64 17.5 57 13.8 79 79 NW 16 26 29.94 1014 10 16.0934 0 0
8:35 am 08:35 Sunny 65 18.3 57 14.1 77 77 NW 16 26 29.94 1014 10 16.0934 0 0
8:55 am 08:55 Sunny 66 19.1 58 14.3 74 74 NW 14 22 29.94 1014 10 16.0934 0 0
9:15 am 09:15 Sunny 69 20.3 56 13.5 65 65 NNW 20 31 29.91 1013 10 16.0934 0 0
9:35 am 09:35 Sunny 69 20.7 56 13.6 64 64 NNW 16 26 29.91 1013 10 16.0934 0 0
9:55 am 09:55 Sunny 70 21.2 56 13.4 61 61 NNW 17 28 29.91 1013 10 16.0934 0 0
10:15 am 10:15 Sunny 71 21.7 57 13.7 61 61 NNW 16 26 29.91 1013 10 16.0934 0 0
10:35 am 10:35 Sunny 72 22.1 56 13.6 59 59 NNW 16 26 29.91 1013 10 16.0934 0 0
10:55 am 10:55 Sunny 73 22.7 56 13.3 55 55 N 20 31 29.91 1013 10 16.0934 0 0
11:15 am 11:15 Sunny 74 23.2 56 13.3 54 54 NNW 18 30 29.91 1013 10 16.0934 0 0
11:35 am 11:35 Sunny 74 23.5 54 12.4 50 50 NNW 18 30 29.88 1012 10 16.0934 0 0
11:55 am 11:55 Sunny 75 23.9 55 12.5 49 49 N 22 35 29.88 1012 10 16.0934 0 0
12:15 pm 12:15 Partly Cloudy 76 24.3 54 12.3 47 47 NNW 24 39 29.88 1012 10 16.0934 0 0
12:35 pm 12:35 Partly Cloudy 76 24.5 55 12.5 47 47 NNW 23 37 29.88 1012 10 16.0934 0 0
12:55 pm 12:55 Partly Cloudy 77 24.9 55 12.6 46 46 NNW 21 33 29.88 1012 10 16.0934 0 0
1:15 pm 13:15 Partly Cloudy 77 24.9 55 12.5 46 46 NNW 23 37 29.88 1012 10 16.0934 0 0
1:35 pm 13:35 Partly Cloudy 77 25.1 54 12.1 44 44 N 20 31 29.85 1011 10 16.0934 0 0
1:55 pm 13:55 Partly Cloudy 77 25 53 11.9 44 44 N 18 30 29.85 1011 10 16.0934 0 0
2:15 pm 14:15 Partly Cloudy 78 25.3 53 11.8 43 43 N 21 33 29.85 1011 10 16.0934 0 0
2:35 pm 14:35 Mostly Cloudy 78 25.6 53 11.6 42 42 NNW 21 33 29.85 1011 10 16.0934 0 0
2:55 pm 14:55 Mostly Cloudy 79 25.9 53 11.5 41 41 N 17 28 29.85 1011 10 16.0934 0 0
3:15 pm 15:15 Cloudy 79 26.2 53 11.7 40 40 NNW 18 30 29.85 1011 10 16.0934 0 0
3:35 pm 15:35 Mostly Cloudy 78 25.5 53 11.7 42 42 NNW 17 28 29.85 1011 10 16.0934 0 0
3:55 pm 15:55 Mostly Cloudy 78 25.5 54 12.2 44 44 N 13 20 29.85 1011 10 16.0934 0 0
4:15 pm 16:15 Mostly Cloudy 80 26.5 53 11.4 39 39 N 17 28 29.85 1011 10 16.0934 0 0
4:35 pm 16:35 Mostly Cloudy 80 26.6 53 11.5 39 39 N 16 26 29.83 1010 10 16.0934 0 0
4:55 pm 16:55 Cloudy 80 26.8 52 11.3 38 38 N 14 22 29.83 1010 10 16.0934 0 0
5:15 pm 17:15 Cloudy 78 25.3 54 12.3 44 44 N 16 26 29.85 1011 10 16.0934 0 0
5:35 pm 17:35 Cloudy 78 25.5 55 12.7 45 45 N 14 22 29.85 1011 10 16.0934 0 0
5:55 pm 17:55 Cloudy 78 25.6 55 12.8 45 45 N 14 22 29.85 1011 10 16.0934 0 0
6:15 pm 18:15 Partly Cloudy 79 26 55 12.5 43 43 N 13 20 29.85 1011 10 16.0934 0 0
6:35 pm 18:35 Partly Cloudy 78 25.7 53 11.7 42 42 N 16 26 29.85 1011 10 16.0934 0 0
6:55 pm 18:55 Partly Cloudy 78 25.6 53 11.8 42 42 N 15 24 29.85 1011 7 11.26538 0 0
7:15 pm 19:15 Sunny 77 25.1 54 12.1 44 44 N 13 20 29.85 1011 10 16.0934 0 0
7:35 pm 19:35 Sunny 76 24.5 54 12.1 46 46 NNE 12 19 29.85 1011 10 16.0934 0 0
7:55 pm 19:55 Sunny 75 23.9 55 12.5 49 49 NNE 10 17 29.85 1011 10 16.0934 0 0
8:15 pm 20:15 Sunny 73 23 54 12.3 51 51 NE 7 11 29.88 1012 10 16.0934 0 0
8:35 pm 20:35 Sunny 72 22 55 12.8 56 56 NE 8 13 29.88 1012 10 16.0934 0 0
8:55 pm 20:55 Sunny 69 20.5 57 13.7 65 65 NE 6 9 29.88 1012 10 16.0934 0 0
9:15 pm 21:15 Clear 67 19.4 57 14 71 71 NE 6 9 29.91 1013 10 16.0934 0 0
9:35 pm 21:35 Clear 66 19.1 57 14.1 73 73 NE 6 9 29.91 1013 10 16.0934 0 0
9:55 pm 21:55 Clear 65 18.3 58 14.3 78 78 NNE 3 6 29.94 1014 10 16.0934 0 0
10:15 pm 22:15 Clear 63 17.4 58 14.6 84 84 Calm 29.94 1014 10 16.0934 0 0
10:35 pm 22:35 Clear 63 17.1 58 14.7 86 86 Calm 29.94 1014 10 16.0934 0 0
10:55 pm 22:55 Clear 63 17 59 14.9 88 88 Calm 29.97 1015 10 16.0934 0 0
11:15 pm 23:15 Clear 62 16.7 58 14.5 87 87 ENE 5 7 30 1016 10 16.0934 0 0
11:35 pm 23:35 Clear 61 16.1 57 14.1 88 88 ENE 5 7 30 1016 10 16.0934 0 0
11:55 pm 23:55 Clear 60 15.6 57 14.1 91 91 ENE 3 6 29.97 1015 10 16.0934 0 0

Powered by AerisWeather